Hourly Weather Roundup
Issued by NWS Central Illinois

Home | Current Version | Previous Version | Text Only | Print | Product List | Glossary On
Versions: 1 2 3 4 5 6 7 8 9 10 11 12 13 14 15 16 17 18 19 20 21 22 23 24 25 26 27 28 29 30 31 32 33 34 35 36 37 38 39 40 41 42 43 44 45 46 47 48 49 50
000
NZUS43 KILX 271510
HWRILX

AREA WEATHER ROUNDUP
NATIONAL WEATHER SERVICE, LINCOLN IL
1000 AM CDT SUN JUL 27 2014


CITY           SKY/WX    TMP DP  RH WIND       PRES   REMARKS
BLOOMINGTON    MOSUNNY   81  70  69 W16       29.84R HX  84
CHAMPAIGN      CLOUDY    78  73  84 N10       29.83R HX  81
DECATUR        PTSUNNY   79  73  82 NW10      29.84R HX  82
FLORA          SUNNY     82  73  73 W14G20    29.84S HX  87
GALESBURG      SUNNY     79  70  73 NW16      29.86S HX  82
JACKSONVILLE   SUNNY     81  76  84 W13       29.88S HX  87
LACON          SUNNY     82  69  65 W10G17    29.80S HX  85
LAWRENCEVILLE  PTSUNNY   83  75  77 W14G20    29.81S HX  90
LITCHFIELD     PTSUNNY   78  73  86 NW12G17   29.88S HX  80
$$


CITY           SKY/WX    TMP DP  RH WIND       PRES   REMARKS
LINCOLN        MOSUNNY   82  74  76 NW8       29.81R HX  87
MACOMB         SUNNY     79  72  80 NW12      29.89R HX  82
MATTOON        CLOUDY    78  73  84 NW14      29.82R HX  81
MT CARMEL AP   MOSUNNY   86  77  74 W10G16    29.81S HX  97
OLNEY-NOBLE AP MOSUNNY   82  73  74 NW10G16   29.83R HX  88
PARIS          PTSUNNY   80  75  84 NW5       29.81S HX  84
PEORIA         SUNNY     83  71  67 NW15      29.83S HX  87
PONTIAC        SUNNY     81  72  74 NW12      29.80S HX  84
RANTOUL        MOSUNNY   78  72  81 NW7       29.82S HAZE    HX  80
ROBINSON       PTSUNNY   83  77  82 W10G16    29.81S HX  91
SPRINGFIELD    MOSUNNY   80  74  81 NW8       29.86R HX  85
TAYLORVILLE    PTSUNNY   75  72  88 NW8       29.86R
$$

...REGIONAL REPORTS...


CITY           SKY/WX    TMP DP  RH WIND       PRES   REMARKS
CHICAGO O`HARE MOSUNNY   82  66  58 W13       29.74F HX  84
KANKAKEE       MOSUNNY   79  74  84 W8        29.78F HX  82
MOLINE         SUNNY     79  62  56 W16G23    29.84R HX  80
MOUNT VERNON   MOSUNNY   84  73  70 NW5       29.86R HX  91
PITTSFIELD     SUNNY     81  72  74 W8        29.90S HX  86
QUINCY         SUNNY     81  74  79 NW14      29.90R HX  86
ROCKFORD       MOSUNNY   79  63  57 NW16G22   29.79S HX  80
$$


CITY           SKY/WX    TMP DP  RH WIND       PRES   REMARKS
BURLINGTON     SUNNY     78  65  63 NW17G28   29.89R HX  80
CEDAR RAPIDS   SUNNY     73  58  59 NW21G28   29.88R
DES MOINES     SUNNY     77  57  50 NW24G30   29.96S
KIRKSVILLE     SUNNY     80  66  62 NW13      29.97R HX  82
OTTUMWA        SUNNY     76  61  59 NW13G21   29.93S
ST LOUIS       PTSUNNY   84  74  71 NW12      29.90R HX  91
$$


CITY           SKY/WX    TMP DP  RH WIND       PRES   REMARKS
TERRE HAUTE    PTSUNNY   79  74  84 W7        29.79F HX  82
EVANSVILLE     CLOUDY    84  75  74 SW13      29.84S HX  92
INDIANAPOLIS   PTSUNNY   73  71  93 SW8       29.80S
LAFAYETTE      CLOUDY    71  70  96 SW6       29.79S
MADISON        MOSUNNY   77  59  53 NW8G17    29.75F
MILWAUKEE      MOSUNNY   79  66  64 W12       29.72F HX  81
$$





USA.gov is the U.S. government's official web portal to all federal, state and local government web resources and services.